Home   Weather   Nøtterøy   Past weeks

Flag for Norway Past Weather in Nøtterøy, Norway — Yesterday and Last 2 Weeks

Now
37 °F

Clear.


Feels Like: 34 °F
Forecast: 32 / 37 °F
Wind: 5 mph from North

Location: Torp

Current Time: Dec 5, 2016 at 9:47:33 pm

Latest Report: Dec 5, 2016 at 8:50 pm


Visibility: 10 mi

Pressure: 30.15 "Hg

Humidity: 75%

Dew Point: 30 °F

Location of NøtterøyLocation

Past Weather in Nøtterøy — Graph

°F

Nøtterøy Temperature Yesterday

Maximum temperature yesterday: 41 °F (at 12:50 pm)
Minimum temperature yesterday: 25 °F (at 6:50 am)
Average temperature yesterday: 36 °F

High & Low Weather Summary for the Past Weeks

 TemperatureHumidityPressure
High50 °F (Dec 5, 12:20 pm)100% (Nov 20, 8:20 pm)30.45 "Hg (Nov 20, 8:20 pm)
Low25 °F (Nov 29, 7:20 am)39% (Nov 27, 12:50 pm)29.27 "Hg (Nov 21, 1:20 am)
Average38 °F73%29.96 "Hg
* Reported Nov 20 8:20 pm — Dec 5 8:50 pm, Nøtterøy, Weather by CustomWeather, © 2016

Note: Actual official high and low records may vary slightly from our data, if they occured in-between our weather recording intervals... More about our weather records

Advertising

Nøtterøy Weather History for the Previous 24 Hours

Scroll right to see more
 ConditionsComfort  
Time TempWeatherWind HumidityBarometerVisibility
8:50 pm
Mon, Dec 5
37 °FClear.5 mph75%30.15 "Hg10 mi
8:20 pm37 °FClear.3 mph81%30.12 "Hg10 mi
7:50 pm37 °FClear.3 mph81%30.12 "Hg10 mi
7:20 pm39 °FClear.2 mph75%30.09 "Hg10 mi
6:50 pm37 °FClear.7 mph75%30.09 "Hg10 mi
6:20 pm41 °FClear.3 mph70%30.09 "Hg10 mi
5:50 pm39 °FClear.7 mph65%30.07 "Hg10 mi
5:20 pm41 °FClear.2 mph66%30.04 "Hg10 mi
4:50 pm45 °FClear.3 mph57%30.04 "Hg10 mi
4:20 pm45 °FClear.No wind57%30.04 "Hg10 mi
3:50 pm46 °FClear.2 mph53%30.01 "Hg10 mi
3:20 pm46 °FSunny.2 mph53%30.01 "Hg10 mi
2:50 pm46 °FPassing clouds.3 mph53%30.01 "HgN/A
2:20 pm46 °FSunny.1 mph53%30.01 "Hg10 mi
1:50 pm48 °FSunny.2 mph50%30.01 "Hg10 mi
1:20 pm48 °FSunny.5 mph50%30.01 "Hg10 mi
12:50 pm48 °FPassing clouds.7 mph50%30.01 "HgN/A
12:20 pm50 °FPassing clouds.5 mph47%29.98 "HgN/A
11:50 am48 °FSunny.3 mph54%29.98 "Hg10 mi
11:20 am46 °FPassing clouds.7 mph57%29.98 "HgN/A
10:50 am46 °FSunny.9 mph57%29.98 "Hg10 mi
10:20 am46 °FSunny.10 mph57%29.98 "Hg10 mi
9:50 am45 °FSunny.9 mph57%29.98 "Hg10 mi
9:20 am45 °FPassing clouds.9 mph57%29.98 "HgN/A
8:50 am45 °FClear.8 mph57%29.98 "Hg10 mi
8:20 am43 °FClear.7 mph66%29.98 "Hg10 mi
7:50 am43 °FPassing clouds.6 mph66%29.98 "HgN/A
7:20 am43 °FClear.8 mph66%29.98 "Hg10 mi
6:50 am43 °FClear.12 mph66%29.98 "Hg10 mi
6:20 am43 °FClear.10 mph66%29.98 "Hg10 mi
5:50 am41 °FClear.9 mph70%29.98 "Hg10 mi
5:20 am41 °FQuite cool.9 mph70%30.01 "HgN/A
4:50 am41 °FQuite cool.8 mph70%30.01 "HgN/A
4:20 am41 °FPassing clouds.9 mph70%30.01 "HgN/A
3:50 am43 °FQuite cool.12 mph66%30.01 "HgN/A
3:20 am43 °FPartly cloudy.10 mph71%30.01 "HgN/A
2:50 am41 °FPassing clouds.9 mph70%30.01 "HgN/A
2:20 am41 °FQuite cool.9 mph76%30.01 "HgN/A
1:50 am41 °FPassing clouds.8 mph76%30.01 "HgN/A
1:20 am43 °FPassing clouds.9 mph66%30.01 "HgN/A
12:50 am43 °FPassing clouds.9 mph71%30.04 "HgN/A
12:20 am43 °FPassing clouds.7 mph71%30.04 "HgN/A
11:50 pm
Sun, Dec 4
41 °FPassing clouds.7 mph76%30.04 "HgN/A
11:20 pm41 °FClear.9 mph76%30.07 "Hg10 mi
10:50 pm41 °FClear.8 mph76%30.07 "Hg10 mi
10:20 pm41 °FClear.8 mph76%30.07 "Hg10 mi
9:50 pm41 °FClear.8 mph76%30.07 "Hg10 mi
9:20 pm39 °FClear.8 mph81%30.07 "Hg10 mi
Weather by CustomWeather, © 2016

See weather overviewHow to use our weather pages